EN

Hourly Weather Bolshoe Packovo

Today, 21 October, Wednesday

Time Temperature Precipitation Wind Pressure Humidity
00:00 +1°C° 0 mm 2 mps 750 mmHg 87%
01:00 +2°C° 0 mm 2 mps 750 mmHg 87%
02:00 +2°C° 0 mm 2 mps 749 mmHg 88%
03:00 +2°C° 0 mm 2 mps 749 mmHg 86%
04:00 +1°C° 0 mm 3 mps 749 mmHg 85%
05:00 +2°C° 0 mm 3 mps 748 mmHg 84%
06:00 +2°C° 0 mm 3 mps 748 mmHg 84%
07:00 +1°C° 0 mm 4 mps 748 mmHg 85%
08:00 +3°C° 0 mm 4 mps 747 mmHg 85%
09:00 +2°C° 0.1 mm 5 mps 747 mmHg 84%
10:00 +3°C° 0.1 mm 5 mps 747 mmHg 84%
11:00 +4°C° 0.1 mm 6 mps 746 mmHg 83%
12:00 +5°C° 0.3 mm 5 mps 746 mmHg 85%
13:00 +5°C° 0.3 mm 5 mps 746 mmHg 86%
14:00 +5°C° 0.3 mm 5 mps 745 mmHg 88%
15:00 +5°C° 0.1 mm 4 mps 745 mmHg 89%
16:00 +5°C° 0.1 mm 4 mps 744 mmHg 91%
17:00 +5°C° 0.1 mm 4 mps 744 mmHg 93%
18:00 +4°C° 0 mm 3 mps 744 mmHg 93%
19:00 +4°C° 0 mm 3 mps 744 mmHg 92%
20:00 +5°C° 0 mm 2 mps 744 mmHg 92%
21:00 +5°C° 0 mm 2 mps 744 mmHg 93%
22:00 +5°C° 0 mm 2 mps 744 mmHg 94%
23:00 +5°C° 0 mm 1 mps 744 mmHg 94%

Tomorrow, 22 October, Thursday

Time Temperature Precipitation Wind Pressure Humidity
00:00 +4°C° 0 mm 2 mps 744 mmHg 95%
01:00 +4°C° 0 mm 2 mps 744 mmHg 95%
02:00 +4°C° 0 mm 2 mps 744 mmHg 95%
03:00 +4°C° 0 mm 2 mps 744 mmHg 96%
04:00 +4°C° 0 mm 2 mps 743 mmHg 96%
05:00 +3°C° 0 mm 3 mps 743 mmHg 96%
06:00 +3°C° 0.2 mm 3 mps 743 mmHg 96%
07:00 +4°C° 0.2 mm 4 mps 743 mmHg 96%
08:00 +4°C° 0.2 mm 4 mps 743 mmHg 95%
09:00 +5°C° 0.4 mm 5 mps 742 mmHg 93%
10:00 +7°C° 0.4 mm 5 mps 742 mmHg 90%
11:00 +8°C° 0.4 mm 5 mps 741 mmHg 88%
12:00 +9°C° 0 mm 6 mps 741 mmHg 83%
13:00 +10°C° 0 mm 6 mps 741 mmHg 79%
14:00 +11°C° 0 mm 7 mps 740 mmHg 75%
15:00 +10°C° 0 mm 6 mps 740 mmHg 78%
16:00 +10°C° 0 mm 6 mps 740 mmHg 82%
17:00 +9°C° 0 mm 6 mps 740 mmHg 85%
18:00 +9°C° 0 mm 6 mps 740 mmHg 86%
19:00 +9°C° 0 mm 6 mps 740 mmHg 87%
20:00 +9°C° 0 mm 6 mps 740 mmHg 88%
21:00 +9°C° 0 mm 6 mps 740 mmHg 89%
22:00 +9°C° 0 mm 6 mps 740 mmHg 90%
23:00 +9°C° 0 mm 6 mps 740 mmHg 90%

Day after tomorrow, 23 October, Friday

Time Temperature Precipitation Wind Pressure Humidity
00:00 +9°C° 0 mm 6 mps 741 mmHg 91%
01:00 +9°C° 0 mm 5 mps 741 mmHg 92%
02:00 +8°C° 0 mm 5 mps 741 mmHg 93%
03:00 +8°C° 0 mm 4 mps 741 mmHg 94%
04:00 +8°C° 0 mm 4 mps 741 mmHg 95%
05:00 +7°C° 0 mm 4 mps 741 mmHg 96%
06:00 +8°C° 0 mm 4 mps 741 mmHg 96%
07:00 +8°C° 0 mm 4 mps 741 mmHg 96%
08:00 +8°C° 0 mm 4 mps 741 mmHg 97%
09:00 +10°C° 0 mm 4 mps 740 mmHg 93%
10:00 +10°C° 0 mm 5 mps 740 mmHg 88%
11:00 +13°C° 0 mm 5 mps 740 mmHg 84%
12:00 +13°C° 0.1 mm 6 mps 739 mmHg 85%
13:00 +13°C° 0.1 mm 6 mps 739 mmHg 85%
14:00 +12°C° 0.1 mm 7 mps 738 mmHg 86%
15:00 +11°C° 0.4 mm 7 mps 738 mmHg 87%
16:00 +11°C° 0.4 mm 7 mps 738 mmHg 88%
17:00 +11°C° 0.4 mm 7 mps 738 mmHg 89%
18:00 +11°C° 0.2 mm 6 mps 738 mmHg 90%
19:00 +11°C° 0.2 mm 6 mps 738 mmHg 91%
20:00 +10°C° 0.2 mm 5 mps 738 mmHg 92%
21:00 +10°C° 0 mm 5 mps 738 mmHg 92%
22:00 +10°C° 0 mm 5 mps 738 mmHg 92%
23:00 +10°C° 0 mm 5 mps 739 mmHg 91%

24 October, Saturday

Time Temperature Precipitation Wind Pressure Humidity
00:00 +10°C° 0 mm 4 mps 739 mmHg 93%
01:00 +10°C° 0 mm 4 mps 739 mmHg 94%
02:00 +9°C° 0 mm 3 mps 739 mmHg 95%
03:00 +8°C° 0 mm 3 mps 739 mmHg 95%
04:00 +8°C° 0 mm 3 mps 739 mmHg 96%
05:00 +7°C° 0 mm 3 mps 739 mmHg 96%
06:00 +7°C° 0 mm 3 mps 739 mmHg 96%
07:00 +7°C° 0 mm 3 mps 739 mmHg 95%
08:00 +7°C° 0 mm 3 mps 739 mmHg 95%
09:00 +9°C° 0 mm 3 mps 740 mmHg 90%
10:00 +10°C° 0 mm 3 mps 740 mmHg 84%
11:00 +11°C° 0 mm 3 mps 740 mmHg 79%
12:00 +11°C° 0 mm 3 mps 740 mmHg 78%
13:00 +13°C° 0 mm 2 mps 739 mmHg 76%
14:00 +13°C° 0 mm 2 mps 739 mmHg 75%
15:00 +12°C° 0 mm 2 mps 738 mmHg 79%
16:00 +12°C° 0 mm 2 mps 738 mmHg 83%
17:00 +10°C° 0 mm 2 mps 737 mmHg 88%
18:00 +10°C° 0.4 mm 3 mps 737 mmHg 89%
19:00 +10°C° 0.4 mm 4 mps 736 mmHg 91%
20:00 +9°C° 0.4 mm 5 mps 736 mmHg 92%
21:00 +9°C° 1.3 mm 5 mps 735 mmHg 93%
22:00 +9°C° 1.3 mm 5 mps 734 mmHg 95%
23:00 +10°C° 1.3 mm 5 mps 734 mmHg 96%

25 October, Sunday

Time Temperature Precipitation Wind Pressure Humidity
00:00 +9°C° 1.5 mm 5 mps 733 mmHg 95%
01:00 +10°C° 1.5 mm 4 mps 733 mmHg 95%
02:00 +10°C° 1.5 mm 4 mps 732 mmHg 94%
03:00 +10°C° 0.6 mm 4 mps 732 mmHg 93%
04:00 +9°C° 0.6 mm 3 mps 732 mmHg 92%
05:00 +9°C° 0.6 mm 3 mps 732 mmHg 92%
06:00 +9°C° 0.2 mm 3 mps 732 mmHg 92%
07:00 +9°C° 0.2 mm 2 mps 732 mmHg 92%
08:00 +9°C° 0.2 mm 2 mps 732 mmHg 93%
09:00 +9°C° 0.4 mm 2 mps 732 mmHg 93%
10:00 +9°C° 0.4 mm 3 mps 733 mmHg 94%
11:00 +9°C° 0.4 mm 3 mps 733 mmHg 94%
12:00 +8°C° 0.9 mm 5 mps 734 mmHg 93%
13:00 +8°C° 0.9 mm 6 mps 734 mmHg 91%
14:00 +7°C° 0.9 mm 8 mps 735 mmHg 90%
15:00 +7°C° 0.1 mm 8 mps 736 mmHg 89%
16:00 +6°C° 0.1 mm 8 mps 737 mmHg 88%
17:00 +6°C° 0.1 mm 8 mps 738 mmHg 88%
18:00 +6°C° 0 mm 7 mps 739 mmHg 87%
19:00 +5°C° 0 mm 7 mps 739 mmHg 87%
20:00 +5°C° 0 mm 6 mps 740 mmHg 86%
21:00 +5°C° 0 mm 6 mps 741 mmHg 87%
22:00 +4°C° 0 mm 6 mps 742 mmHg 87%
23:00 +5°C° 0 mm 5 mps 742 mmHg 88%

26 October, Monday

Time Temperature Precipitation Wind Pressure Humidity
00:00 +3°C° 0 mm 5 mps 743 mmHg 89%
01:00 +4°C° 0 mm 4 mps 743 mmHg 91%
02:00 +3°C° 0 mm 4 mps 744 mmHg 92%
03:00 +3°C° 0 mm 4 mps 744 mmHg 93%
04:00 +3°C° 0 mm 3 mps 745 mmHg 93%
05:00 +2°C° 0 mm 3 mps 745 mmHg 94%
06:00 +3°C° 0 mm 3 mps 746 mmHg 94%
07:00 +3°C° 0 mm 3 mps 746 mmHg 93%
08:00 +3°C° 0 mm 3 mps 747 mmHg 93%
09:00 +4°C° 0 mm 3 mps 747 mmHg 89%
10:00 +7°C° 0 mm 3 mps 747 mmHg 85%
11:00 +8°C° 0 mm 3 mps 748 mmHg 80%
12:00 +8°C° 0 mm 3 mps 748 mmHg 79%
13:00 +9°C° 0 mm 2 mps 748 mmHg 77%
14:00 +9°C° 0 mm 2 mps 748 mmHg 75%
15:00 +8°C° 0 mm 2 mps 749 mmHg 80%
16:00 +7°C° 0 mm 2 mps 749 mmHg 84%
17:00 +7°C° 0 mm 1 mps 749 mmHg 88%
18:00 +7°C° 0 mm 1 mps 749 mmHg 89%
19:00 +6°C° 0 mm 1 mps 750 mmHg 90%
20:00 +6°C° 0 mm 1 mps 750 mmHg 91%
21:00 +4°C° 0 mm 2 mps 750 mmHg 91%
22:00 +4°C° 0 mm 2 mps 751 mmHg 91%
23:00 +4°C° 0 mm 2 mps 751 mmHg 91%

27 October, Tuesday

Time Temperature Precipitation Wind Pressure Humidity
00:00 +4°C° 0 mm 2 mps 751 mmHg 90%
01:00 +3°C° 0 mm 2 mps 751 mmHg 89%
02:00 +3°C° 0 mm 2 mps 752 mmHg 88%
03:00 +3°C° 0 mm 2 mps 752 mmHg 87%
04:00 +2°C° 0 mm 2 mps 752 mmHg 87%
05:00 +2°C° 0 mm 2 mps 752 mmHg 87%
06:00 +2°C° 0 mm 2 mps 752 mmHg 87%
07:00 +2°C° 0 mm 2 mps 753 mmHg 86%
08:00 +2°C° 0 mm 2 mps 753 mmHg 86%
09:00 +4°C° 0 mm 2 mps 753 mmHg 82%
10:00 +5°C° 0 mm 2 mps 753 mmHg 77%
11:00 +5°C° 0 mm 3 mps 753 mmHg 73%
12:00 +7°C° 0 mm 3 mps 753 mmHg 71%
13:00 +7°C° 0 mm 3 mps 753 mmHg 69%
14:00 +8°C° 0 mm 3 mps 753 mmHg 67%
15:00 +7°C° 0 mm 3 mps 753 mmHg 72%
16:00 +5°C° 0 mm 3 mps 753 mmHg 77%
17:00 +4°C° 0 mm 3 mps 753 mmHg 82%
18:00 +3°C° 0 mm 3 mps 753 mmHg 83%
19:00 +3°C° 0 mm 3 mps 753 mmHg 84%
20:00 +2°C° 0 mm 3 mps 753 mmHg 85%
21:00 +2°C° 0 mm 3 mps 753 mmHg 85%
22:00 +2°C° 0 mm 3 mps 753 mmHg 85%
23:00 +1°C° 0 mm 3 mps 753 mmHg 84%
Show more